Wind_Speed
16 19 9 15 10 8 12 17 12 16 9 9 3 4 3 5 7 9 13 19 22 24 25 26 27 28 30 31 33 34 36 36 35 36 36 36 36 35 33 32 32 33 35 36
22 20 19 18 17 14 18 19 11 2 7 3 2 1 1 4 4 8 15 20 22 23 25 26 27 29 31 32 33 34 36 36 36 36 37 36 36 35 34 31 30 31 33 35
17 10 11 12 8 12 2 1 2 6 2 0 2 4 4 3 5 12 17 20 22 24 25 26 28 28 31 33 33 34 36 36 37 37 38 37 36 35 34 32 31 31 32 32
12 2 15 3 5 5 3 4 3 3 2 1 4 11 13 8 9 16 19 21 21 23 24 25 26 27 29 31 32 34 37 38 38 38 39 37 36 35 34 33 32 32 32 31
4 7 0 2 4 5 3 2 3 3 4 5 11 10 4 5 18 19 19 20 21 22 23 25 25 26 29 31 32 35 38 38 38 37 38 38 37 37 36 35 32 31 31 32
1 8 12 3 8 11 5 1 3 3 4 8 10 3 2 13 19 18 18 19 20 20 22 23 25 26 28 31 32 36 39 37 38 37 37 37 37 39 37 31 31 30 32 32
4 4 3 8 16 8 2 1 4 5 6 9 3 5 19 19 19 19 19 20 20 20 22 23 25 27 28 31 32 35 38 37 36 36 36 36 40 39 34 32 29 30 34 35
3 2 4 18 2 2 4 4 6 8 9 12 13 16 16 18 19 20 21 21 20 23 23 23 24 26 28 31 32 35 39 38 36 35 35 40 40 37 36 33 33 36 39 40
3 1 4 6 4 5 7 8 9 11 13 12 15 17 18 19 20 20 21 22 22 24 26 24 25 25 28 30 33 36 39 38 37 35 35 41 38 39 39 36 37 40 39 42
1 2 8 4 9 11 9 11 12 12 16 15 17 20 21 21 21 22 23 24 24 26 27 27 26 25 24 29 32 34 39 39 38 36 37 39 38 39 39 37 39 41 40 41
3 3 10 4 16 13 14 13 14 15 16 16 18 22 21 22 22 23 24 23 25 27 27 28 27 26 25 28 31 34 37 40 38 36 39 41 38 37 37 36 35 37 38 41
3 5 6 16 16 15 14 18 19 19 20 20 20 21 20 22 23 24 24 25 26 26 26 26 27 26 25 25 29 31 36 39 37 36 39 39 41 44 39 38 38 37 37 39
6 11 15 14 15 13 20 21 21 21 21 23 23 22 22 24 24 23 25 24 24 26 25 26 27 27 23 24 28 28 32 37 37 36 38 38 40 41 47 47 42 42 42 45
11 13 19 12 23 21 20 22 23 24 24 22 23 23 23 25 26 25 25 24 24 25 25 25 26 25 22 22 27 27 28 33 35 35 36 35 36 38 40 43 47 50 46 48
7 18 21 23 22 22 22 23 25 25 24 23 21 22 22 24 26 26 24 23 24 25 25 24 25 23 20 21 25 26 27 33 34 34 33 32 33 36 37 39 43 45 48 49
23 23 23 22 24 24 24 24 25 26 25 25 25 23 23 24 25 25 24 22 24 26 25 24 24 22 18 21 24 25 26 29 31 33 32 32 33 35 36 38 41 43 45 46
23 25 25 27 26 27 27 26 26 27 26 26 26 25 25 24 25 24 22 20 22 24 23 23 23 22 16 22 23 22 25 28 30 31 31 30 31 32 33 35 37 39 40 41
21 23 24 25 27 28 28 27 27 27 27 27 27 27 27 26 26 25 23 24 25 25 22 20 20 18 19 19 19 20 22 26 29 31 30 29 29 28 30 32 34 37 37 39
22 24 25 25 26 27 29 29 28 28 27 27 26 27 26 26 24 24 24 25 25 26 23 20 17 16 17 15 18 18 17 25 29 31 28 26 26 26 28 29 31 33 34 37
26 25 26 28 27 28 30 30 29 29 28 26 26 26 26 25 24 24 25 26 24 23 22 21 19 19 14 14 16 14 19 24 29 31 25 24 24 25 24 24 27 30 32 33
31 30 30 29 29 30 30 28 27 29 28 28 27 27 27 26 26 26 26 28 24 21 21 20 20 14 17 13 21 16 20 24 29 28 23 22 22 22 22 22 24 27 30 31
32 32 32 30 31 32 30 28 29 29 29 28 28 27 26 28 28 29 27 27 25 22 20 16 12 17 16 19 14 17 21 25 29 25 22 19 19 20 20 20 20 23 25 29
33 33 33 32 31 32 32 32 30 28 28 26 26 25 27 29 28 27 31 28 26 23 19 20 20 18 15 19 21 19 23 28 27 22 19 17 16 17 18 17 17 18 20 24
34 33 33 32 32 33 34 31 28 27 26 26 24 24 23 25 25 26 26 24 22 22 20 18 17 17 18 20 18 22 24 27 22 18 17 15 14 14 14 14 12 13 15 18
35 35 35 34 33 33 32 30 28 28 27 27 25 23 22 22 24 22 24 24 21 20 22 21 18 18 21 23 23 25 22 19 18 15 14 14 13 12 12 11 11 9 10 12
34 33 31 30 31 29 29 28 29 29 27 27 28 26 27 25 22 23 24 19 18 16 18 23 24 23 24 24 24 22 22 18 15 13 13 13 12 12 11 10 9 7 5 6
34 30 31 31 32 29 28 27 27 31 30 30 30 28 24 25 26 25 23 26 26 25 24 26 28 29 29 28 25 23 19 16 14 14 13 12 11 11 11 10 8 7 4 3
Wind_Direction
245 249 215 245 229 198 206 232 229 254 208 258 240 192 191 302 315 325 331 329 331 332 335 336 336 336 336 337 335 334 333 330 328 326 326 324 321 319 314 308 306 306 303 297
270 261 245 242 242 243 229 245 249 137 254 215 163 183 266 291 302 328 328 328 328 330 332 335 337 335 335 336 335 335 334 332 331 329 329 326 324 321 317 312 308 310 305 299
265 274 275 266 262 263 225 8 198 213 223 37 81 329 306 240 334 337 328 327 327 329 331 334 335 333 333 335 334 335 337 336 334 333 330 328 326 324 321 317 311 311 309 302
272 16 275 297 358 350 85 33 358 75 60 351 305 313 290 232 340 332 327 326 325 327 328 332 333 331 330 334 334 337 339 338 337 334 331 330 330 329 326 321 313 310 312 309
258 260 303 87 5 18 353 24 358 43 9 339 337 310 324 156 337 326 324 323 322 323 326 330 331 331 331 335 337 339 341 338 338 336 334 334 334 333 332 323 314 310 312 316
356 275 274 36 339 341 320 235 15 30 1 345 342 26 274 320 320 320 323 325 323 324 327 330 334 331 333 338 340 341 340 339 338 337 337 337 337 338 329 326 319 316 317 322
303 289 92 343 315 321 225 191 354 357 338 336 343 287 304 315 318 322 325 328 329 327 329 338 337 333 335 339 341 340 341 340 338 339 339 342 342 334 338 333 328 328 329 326
280 275 243 351 335 344 340 328 333 333 331 324 315 314 313 313 316 320 324 327 329 329 334 338 338 335 336 340 339 340 343 342 342 340 343 347 338 342 344 341 339 336 332 325
177 289 355 359 48 4 349 335 333 328 327 317 316 315 313 317 320 322 324 326 328 331 331 336 339 339 335 339 339 340 344 344 344 342 348 343 344 349 346 346 340 335 326 324
3 269 333 280 9 354 345 342 330 326 323 317 310 315 315 316 319 321 324 327 328 329 330 331 335 337 335 338 339 340 343 346 346 345 345 346 348 353 348 346 340 331 329 327
273 322 343 211 333 329 325 327 326 319 318 311 310 311 312 312 318 320 321 322 325 326 325 328 331 333 335 337 339 341 343 348 346 350 348 347 349 351 346 348 334 332 334 334
257 327 296 296 314 324 314 319 318 319 316 313 310 308 307 308 313 317 321 320 318 319 321 326 328 331 333 335 340 341 345 347 349 347 349 348 350 348 356 359 2 3 358 349
266 315 314 312 316 317 313 315 313 311 306 306 308 306 302 303 307 309 307 314 314 316 319 324 326 329 330 331 339 342 345 349 347 351 349 349 353 354 352 354 5 9 9 11
280 311 318 307 307 303 304 308 306 302 301 301 303 302 302 302 304 306 309 313 313 313 318 322 321 325 326 329 336 340 343 348 350 350 348 351 352 356 357 358 359 3 10 12
296 302 302 306 303 303 303 306 307 305 309 308 308 308 306 304 304 307 309 311 309 310 315 317 317 324 323 329 333 339 342 348 347 348 350 352 355 358 359 1 5 5 8 14
312 310 313 311 312 312 313 311 310 308 310 310 311 311 308 306 306 307 309 310 308 310 316 317 316 321 320 326 328 334 340 345 347 349 352 354 358 359 360 4 7 9 13 12
307 310 315 315 316 314 313 311 310 311 311 310 312 311 308 309 309 310 310 309 307 308 312 316 314 316 316 320 323 326 335 340 346 350 354 356 359 358 1 5 7 10 15 19
300 300 303 304 308 310 311 311 311 311 309 309 309 309 308 308 309 311 311 311 308 309 312 314 311 311 313 314 318 322 327 336 345 349 350 356 357 359 3 7 9 10 14 21
310 301 303 302 302 305 306 307 308 308 307 307 306 304 304 304 307 308 310 308 308 311 315 314 313 304 306 316 321 313 319 335 342 347 347 352 356 2 4 8 11 14 16 20
317 312 307 306 304 302 302 303 304 303 302 304 301 300 302 304 307 307 309 304 306 312 310 311 312 310 315 305 324 306 321 332 338 342 345 348 356 0 5 9 12 18 19 22
317 315 310 308 305 305 303 304 303 303 304 303 298 297 297 299 302 305 303 301 308 312 307 305 295 301 312 302 311 302 312 324 333 337 340 344 351 359 4 9 13 18 23 25
315 314 313 311 308 307 307 305 303 307 307 303 299 295 293 296 300 301 298 296 302 303 305 307 296 313 307 301 287 291 304 318 327 330 332 336 345 355 1 5 12 16 23 28
315 314 312 310 308 308 306 303 303 303 300 300 300 294 292 294 296 297 300 301 296 294 299 298 298 298 299 276 287 291 304 314 319 321 323 329 338 347 354 359 4 12 21 27
318 316 314 312 309 306 304 309 305 301 298 300 301 298 298 298 296 296 302 299 290 282 277 285 288 286 289 274 279 296 305 307 308 312 313 321 327 333 342 350 356 6 20 28
320 318 317 315 313 310 310 311 309 305 305 304 306 304 298 301 301 305 306 301 295 285 272 273 277 273 265 271 280 289 294 301 301 304 310 316 321 323 329 338 346 352 10 24
321 318 317 315 312 313 313 309 303 304 304 302 305 308 308 308 304 303 304 300 296 293 278 271 271 271 274 277 283 290 296 298 288 293 301 310 316 317 317 321 327 330 337 7
329 324 322 320 321 319 314 309 303 301 302 299 296 299 305 305 306 303 299 294 290 288 283 276 268 267 271 275 276 281 286 283 277 284 292 301 306 308 306 306 305 307 292 298
Height
1533 1530 1539 1529 1535 1545 1539 1530 1530 1520 1540 1526 1536 1536 1536 1537 1536 1536 1534 1533 1530 1525 1520 1516 1510 1505 1500 1495 1489 1483 1476 1470 1464 1458 1452 1445 1439 1433 1427 1422 1417 1413 1407 1403
1520 1521 1521 1519 1521 1525 1527 1520 1525 1542 1534 1534 1535 1536 1535 1535 1535 1533 1532 1530 1527 1523 1518 1512 1507 1501 1495 1490 1484 1478 1471 1464 1458 1451 1444 1438 1431 1424 1419 1413 1409 1404 1398 1393
1513 1514 1514 1512 1518 1514 1526 1531 1527 1527 1530 1535 1534 1535 1535 1535 1534 1531 1530 1527 1523 1519 1514 1509 1504 1498 1492 1486 1480 1474 1466 1459 1452 1444 1436 1430 1424 1417 1410 1405 1400 1395 1390 1384
1514 1528 1519 1532 1530 1526 1526 1534 1534 1531 1533 1534 1533 1533 1532 1532 1530 1529 1527 1523 1520 1515 1510 1506 1501 1495 1489 1483 1476 1469 1462 1454 1447 1439 1431 1424 1416 1409 1402 1396 1391 1385 1380 1374
1518 1514 1519 1530 1536 1536 1532 1536 1537 1536 1536 1536 1532 1530 1528 1529 1528 1526 1523 1519 1515 1511 1507 1501 1496 1490 1484 1478 1471 1464 1457 1449 1442 1434 1425 1417 1408 1401 1394 1387 1381 1375 1370 1363
1525 1514 1512 1543 1539 1537 1536 1527 1538 1538 1537 1536 1532 1530 1530 1529 1526 1523 1520 1516 1511 1508 1503 1498 1492 1486 1480 1473 1466 1459 1452 1444 1437 1430 1421 1412 1403 1394 1388 1381 1373 1366 1359 1354
1536 1519 1537 1542 1539 1536 1534 1543 1539 1538 1537 1536 1533 1533 1529 1526 1523 1520 1516 1512 1507 1503 1499 1493 1488 1481 1476 1469 1463 1456 1448 1440 1433 1425 1417 1408 1398 1391 1381 1373 1366 1359 1351 1343
1544 1539 1535 1543 1539 1538 1545 1540 1539 1537 1535 1533 1531 1529 1526 1523 1520 1516 1511 1507 1503 1498 1493 1489 1484 1478 1472 1466 1460 1453 1445 1436 1428 1420 1412 1403 1395 1385 1375 1367 1359 1351 1342 1333
1559 1552 1549 1547 1546 1545 1543 1541 1538 1535 1533 1531 1528 1527 1524 1519 1516 1512 1508 1503 1499 1494 1489 1485 1481 1475 1468 1462 1456 1448 1441 1432 1423 1415 1407 1400 1390 1379 1370 1361 1353 1344 1337 1326
1552 1550 1548 1547 1546 1544 1541 1539 1536 1534 1531 1529 1526 1524 1520 1516 1512 1508 1503 1499 1494 1490 1485 1480 1476 1472 1466 1459 1453 1446 1437 1428 1420 1411 1403 1395 1386 1377 1367 1358 1349 1342 1331 1321
1551 1549 1545 1545 1545 1542 1539 1537 1535 1532 1529 1526 1523 1519 1516 1511 1507 1503 1499 1495 1491 1486 1481 1476 1471 1467 1462 1457 1450 1443 1435 1426 1418 1409 1401 1391 1383 1376 1367 1357 1350 1339 1328 1316
1554 1550 1549 1545 1542 1539 1536 1534 1531 1528 1524 1522 1519 1515 1511 1507 1503 1499 1495 1490 1486 1482 1477 1472 1467 1463 1458 1454 1448 1441 1433 1425 1416 1408 1399 1390 1379 1366 1363 1355 1343 1331 1320 1309
1551 1549 1546 1542 1539 1536 1533 1530 1527 1523 1520 1516 1513 1509 1506 1501 1498 1494 1490 1486 1482 1477 1473 1468 1463 1458 1454 1450 1445 1439 1432 1424 1416 1407 1399 1389 1380 1370 1356 1341 1338 1328 1315 1301
1547 1545 1541 1538 1535 1532 1529 1526 1522 1518 1515 1511 1507 1503 1499 1495 1492 1488 1484 1481 1476 1472 1468 1464 1459 1455 1451 1446 1441 1436 1431 1425 1416 1407 1399 1390 1382 1372 1362 1351 1337 1323 1313 1302
1544 1542 1538 1534 1530 1526 1524 1520 1515 1511 1507 1504 1501 1497 1494 1489 1485 1482 1478 1475 1471 1466 1463 1459 1454 1451 1447 1443 1438 1434 1428 1422 1415 1407 1399 1391 1382 1373 1365 1355 1343 1331 1316 1302
1538 1535 1532 1528 1524 1520 1517 1513 1509 1505 1501 1498 1494 1491 1487 1484 1480 1476 1473 1469 1465 1460 1458 1454 1450 1446 1443 1439 1435 1431 1426 1422 1415 1406 1398 1390 1382 1374 1366 1356 1346 1336 1324 1312
1532 1527 1525 1521 1518 1513 1510 1506 1503 1498 1494 1491 1487 1484 1480 1477 1473 1470 1466 1464 1460 1456 1453 1449 1445 1442 1439 1436 1432 1428 1423 1419 1414 1406 1398 1391 1384 1377 1369 1360 1351 1342 1332 1322
1529 1524 1521 1517 1512 1507 1502 1499 1496 1492 1488 1484 1481 1477 1474 1470 1467 1463 1460 1457 1453 1450 1448 1444 1441 1437 1435 1432 1429 1425 1421 1417 1412 1405 1399 1392 1386 1379 1371 1364 1356 1347 1338 1329
1522 1518 1514 1510 1506 1501 1497 1492 1489 1485 1481 1478 1474 1470 1467 1464 1461 1458 1454 1451 1447 1443 1441 1439 1436 1433 1431 1428 1425 1422 1419 1415 1410 1405 1399 1393 1387 1381 1374 1367 1361 1353 1345 1336
1513 1510 1506 1502 1498 1494 1489 1485 1482 1477 1474 1471 1467 1464 1460 1457 1455 1452 1449 1444 1442 1440 1435 1433 1430 1428 1426 1424 1422 1419 1417 1413 1408 1403 1398 1393 1387 1382 1377 1371 1366 1359 1351 1343
1506 1502 1497 1493 1489 1485 1481 1477 1473 1469 1465 1463 1459 1456 1453 1450 1448 1445 1442 1438 1436 1434 1430 1428 1426 1424 1422 1419 1417 1415 1413 1410 1406 1401 1397 1393 1388 1384 1379 1374 1369 1363 1358 1351
1497 1493 1488 1484 1479 1474 1471 1468 1464 1460 1457 1453 1451 1448 1445 1442 1440 1437 1434 1432 1429 1427 1425 1422 1421 1419 1417 1415 1413 1412 1410 1407 1403 1399 1396 1393 1389 1385 1380 1376 1372 1367 1363 1358
1489 1484 1479 1475 1471 1466 1461 1458 1455 1452 1449 1446 1442 1439 1437 1434 1432 1428 1423 1424 1421 1420 1419 1417 1416 1416 1415 1411 1409 1407 1405 1402 1400 1397 1394 1391 1388 1386 1382 1379 1375 1372 1368 1363
1480 1475 1471 1466 1462 1457 1452 1449 1446 1443 1440 1437 1434 1431 1429 1425 1422 1421 1417 1414 1414 1412 1411 1411 1411 1411 1410 1405 1404 1402 1400 1398 1396 1393 1390 1388 1387 1385 1383 1380 1377 1375 1372 1369
1472 1467 1462 1457 1452 1447 1444 1440 1436 1433 1431 1428 1425 1423 1421 1419 1415 1412 1410 1407 1405 1405 1403 1403 1404 1403 1400 1399 1398 1397 1396 1394 1392 1390 1388 1386 1384 1382 1381 1380 1378 1376 1374 1373
1465 1459 1455 1450 1445 1441 1437 1433 1429 1426 1423 1419 1417 1415 1412 1410 1408 1406 1403 1400 1398 1397 1396 1395 1395 1394 1393 1392 1391 1390 1389 1388 1387 1386 1385 1384 1382 1380 1379 1378 1377 1376 1376 1374
1458 1454 1447 1442 1438 1434 1430 1426 1422 1418 1416 1412 1408 1407 1405 1402 1400 1398 1396 1394 1391 1389 1387 1386 1385 1385 1384 1384 1384 1384 1383 1382 1382 1381 1381 1380 1379 1378 1377 1376 1375 1375 1375 1375